User: anonymous   Login
Location: Newark
(7.0858°N, 171.3717°E)
Time: 15:16:54
(UTC+00:00)
Language:

A-11 Canister half - Orbit

View from above orbital plane
View from above orbital plane
View from above satellite
View from above satellite

Ground track
Ground track

The orbit data is extracted from the following two-line orbital elements,

1    53U 60009E   21163.17421772 -.00000078  00000-0  73729-4 0  9995
2    53  47.2743 229.6623 0096650  64.6605 296.4157 12.17254072712386
Epoch (UTC): 12 June 2021 04:10:52
Eccentricity: 0.0096650
inclination: 47.2743°
perigee height: 1527 km
apogee height: 1681 km
right ascension of ascending node: 229.6623°
argument of perigee: 64.6605°
revolutions per day: 12.17254072
mean anomaly at epoch: 296.4157°
orbit number at epoch: 71238

The dashed part of the orbit path shows where the satellite is in the earth's shadow,  

DLR